User: anonymous   Login
Location: Oshawa
(43.9000°N, 78.8670°W)
Time: 17:10:36
(UTC-04:00)
Language:

Thor Agena Rocket - Orbit

View from above orbital plane
View from above orbital plane
View from above satellite
View from above satellite

Ground track
Ground track

The orbit data is extracted from the following two-line orbital elements,

1 00733U 64002A   16125.48283522  .00000073  00000-0  44992-4 0  9996
2 00733  99.0955 284.2772 0032884 285.9397  73.8162 14.32208866723809
Epoch (UTC): 04 May 2016 11:35:16
Eccentricity: 0.0032884
inclination: 99.0955°
perigee height: 761 km
apogee height: 808 km
right ascension of ascending node: 284.2772°
argument of perigee: 285.9397°
revolutions per day: 14.32208866
mean anomaly at epoch: 73.8162°
orbit number at epoch: 72380

The dashed part of the orbit path shows where the satellite is in the earth's shadow,  

DLR